EZY676C EGGD-EGAC

Flight info

Callsign EZY676C
Flight time 0h 50m
Altitude 26000
Route BCN P69 DIZIM DCT KISWO/N0375F270 DCT AVTIC/N0381F280 DCT MONTY UN864 BILVO UP6 TUPEM DCT REMSI DCT NINEB M148 MAGEE
Aircraft A320/M-SDE3FGHIRWY/LB1

Departure

Time 2026-04-26 18:24
Airport Bristol Airport (EGGD)

Arrival

Time 2026-04-26 19:15
Airport George Best Belfast City Airport (EGAC)
Time Latitude Longitude Altitude Speed Heading
2026-04-26 18:14 51.38555 -2.71083 613 ft 0 kts 356°
2026-04-26 18:17 51.38548 -2.71082 626 ft 4 kts 356°
2026-04-26 18:18 51.38521 -2.71079 619 ft 4 kts 356°
2026-04-26 18:18 51.38495 -2.71077 613 ft 4 kts
2026-04-26 18:18 51.38470 -2.71088 623 ft 4 kts 37°
2026-04-26 18:18 51.38457 -2.71116 622 ft 2 kts 86°
2026-04-26 18:19 51.38456 -2.71125 623 ft 0 kts 86°
2026-04-26 18:22 51.38457 -2.71100 625 ft 4 kts 86°
2026-04-26 18:22 51.38459 -2.71041 619 ft 5 kts 86°
2026-04-26 18:22 51.38462 -2.70973 613 ft 8 kts 86°
2026-04-26 18:23 51.38466 -2.70860 612 ft 12 kts 87°
2026-04-26 18:23 51.38459 -2.70728 622 ft 12 kts 136°
2026-04-26 18:23 51.38367 -2.70747 620 ft 17 kts 199°
2026-04-26 18:23 51.38309 -2.70864 622 ft 19 kts 265°
2026-04-26 18:24 51.38287 -2.71435 615 ft 91 kts 266°
2026-04-26 18:24 51.38231 -2.72829 622 ft 156 kts 266°
2026-04-26 18:24 51.38169 -2.74599 1285 ft 158 kts 265°
2026-04-26 18:24 51.38114 -2.76371 1894 ft 166 kts 265°
2026-04-26 18:25 51.38050 -2.78336 2188 ft 188 kts 266°
2026-04-26 18:25 51.37976 -2.80556 2534 ft 211 kts 266°
2026-04-26 18:25 51.37896 -2.83004 2805 ft 219 kts 266°
2026-04-26 18:25 51.37818 -2.85390 3177 ft 222 kts 266°
2026-04-26 18:26 51.37892 -2.87990 3762 ft 247 kts 281°
2026-04-26 18:26 51.38456 -2.90664 4206 ft 263 kts 298°
2026-04-26 18:26 51.39524 -2.93064 4954 ft 268 kts 315°
2026-04-26 18:26 51.40989 -2.94956 5700 ft 274 kts 328°
2026-04-26 18:27 51.42624 -2.96530 5932 ft 273 kts 329°
2026-04-26 18:27 51.44257 -2.98076 6001 ft 272 kts 329°
2026-04-26 18:27 51.45893 -2.99647 6420 ft 276 kts 328°
2026-04-26 18:27 51.47529 -3.01257 7450 ft 276 kts 327°
2026-04-26 18:28 51.49175 -3.02893 8398 ft 280 kts 327°
2026-04-26 18:28 51.50836 -3.04553 9331 ft 284 kts 326°
2026-04-26 18:28 51.51951 -3.05669 9898 ft 286 kts 326°
2026-04-26 18:28 51.53662 -3.07383 10563 ft 298 kts 326°
2026-04-26 18:29 51.55489 -3.09214 10945 ft 319 kts 326°
2026-04-26 18:29 51.57400 -3.11126 11636 ft 328 kts 326°
2026-04-26 18:29 51.59355 -3.13080 12353 ft 333 kts 325°
2026-04-26 18:29 51.61331 -3.15056 13196 ft 337 kts 325°
2026-04-26 18:30 51.63333 -3.17058 13954 ft 340 kts 325°
2026-04-26 18:30 51.65355 -3.19086 14647 ft 344 kts 325°
2026-04-26 18:30 51.67398 -3.21133 15350 ft 347 kts 325°
2026-04-26 18:30 51.69465 -3.23178 16033 ft 352 kts 328°
2026-04-26 18:31 51.71743 -3.24735 16732 ft 360 kts 341°
2026-04-26 18:31 51.74221 -3.25464 17398 ft 367 kts 354°
2026-04-26 18:31 51.76797 -3.25283 18101 ft 374 kts
2026-04-26 18:31 51.79378 -3.24635 18749 ft 377 kts
2026-04-26 18:32 51.81985 -3.23985 19333 ft 381 kts
2026-04-26 18:32 51.84615 -3.23336 19900 ft 385 kts
2026-04-26 18:32 51.87279 -3.22683 20466 ft 389 kts
2026-04-26 18:32 51.89962 -3.22021 21024 ft 393 kts
2026-04-26 18:33 51.92675 -3.21349 21555 ft 396 kts
2026-04-26 18:33 51.95416 -3.20671 22085 ft 400 kts
2026-04-26 18:33 51.98184 -3.19985 22607 ft 404 kts
2026-04-26 18:33 52.00978 -3.19293 23137 ft 408 kts
2026-04-26 18:34 52.03797 -3.18615 23686 ft 411 kts
2026-04-26 18:34 52.06654 -3.18332 24145 ft 413 kts
2026-04-26 18:34 52.09529 -3.18119 24575 ft 416 kts
2026-04-26 18:34 52.12430 -3.17901 25012 ft 419 kts
2026-04-26 18:35 52.15352 -3.17678 25443 ft 421 kts 360°
2026-04-26 18:35 52.18292 -3.17451 25860 ft 424 kts 360°
2026-04-26 18:35 52.21253 -3.17220 26190 ft 427 kts
2026-04-26 18:35 52.24209 -3.16984 26278 ft 420 kts 360°
2026-04-26 18:36 52.27068 -3.16752 26279 ft 405 kts 360°
2026-04-26 18:36 52.29772 -3.16536 26275 ft 399 kts 359°
2026-04-26 18:36 52.32538 -3.16326 26275 ft 398 kts 359°
2026-04-26 18:36 52.35285 -3.16120 26276 ft 389 kts 359°
2026-04-26 18:37 52.37971 -3.15910 26279 ft 389 kts 359°
2026-04-26 18:37 52.40722 -3.15702 26279 ft 402 kts 359°
2026-04-26 18:37 52.43562 -3.15496 26275 ft 414 kts 359°
2026-04-26 18:37 52.46450 -3.15282 26278 ft 418 kts 359°
2026-04-26 18:38 52.48944 -3.15090 26288 ft 417 kts 359°
2026-04-26 18:38 52.51803 -3.14859 26269 ft 403 kts 360°
2026-04-26 18:38 52.54463 -3.14635 26270 ft 391 kts 359°
2026-04-26 18:38 52.57187 -3.14412 26272 ft 394 kts 359°
2026-04-26 18:39 52.59967 -3.14194 26275 ft 406 kts 359°
2026-04-26 18:39 52.62834 -3.13979 26277 ft 417 kts 359°
2026-04-26 18:39 52.65693 -3.13758 26269 ft 403 kts 359°
2026-04-26 18:39 52.68417 -3.13944 26273 ft 382 kts 345°
2026-04-26 18:40 52.70933 -3.15268 26277 ft 384 kts 330°
2026-04-26 18:40 52.73262 -3.17110 26276 ft 376 kts 330°
2026-04-26 18:40 52.75568 -3.18945 26271 ft 361 kts 330°
2026-04-26 18:40 52.77719 -3.20663 26270 ft 349 kts 329°
2026-04-26 18:41 52.79876 -3.22390 26273 ft 343 kts 329°
2026-04-26 18:41 52.81994 -3.24090 26274 ft 332 kts 329°
2026-04-26 18:41 52.84059 -3.25746 26276 ft 331 kts 329°
2026-04-26 18:41 52.86103 -3.27391 26271 ft 320 kts 329°
2026-04-26 18:42 52.88074 -3.28985 26272 ft 318 kts 329°
2026-04-26 18:42 52.90071 -3.30620 26277 ft 332 kts 329°
2026-04-26 18:42 52.92163 -3.32331 26283 ft 339 kts 329°
2026-04-26 18:42 52.94273 -3.34044 26279 ft 337 kts 329°
2026-04-26 18:43 52.96384 -3.35746 26289 ft 335 kts 329°
2026-04-26 18:43 52.98440 -3.37405 26274 ft 322 kts 329°
2026-04-26 18:43 53.00472 -3.39050 26280 ft 332 kts 329°
2026-04-26 18:43 53.02577 -3.40767 26280 ft 341 kts 329°
2026-04-26 18:44 53.04747 -3.42541 26279 ft 357 kts 329°
2026-04-26 18:44 53.07028 -3.44412 26279 ft 373 kts 329°
2026-04-26 18:44 53.09402 -3.46357 26279 ft 386 kts 330°
2026-04-26 18:44 53.11793 -3.48303 26289 ft 383 kts 330°
2026-04-26 18:45 53.14185 -3.50232 26320 ft 379 kts 330°
2026-04-26 18:45 53.16584 -3.52183 26281 ft 383 kts 330°
2026-04-26 18:45 53.18932 -3.54098 26272 ft 369 kts 329°
2026-04-26 18:45 53.21219 -3.55965 26290 ft 371 kts 330°
2026-04-26 18:46 53.23592 -3.57923 26285 ft 389 kts 330°
2026-04-26 18:46 53.26065 -3.59977 26283 ft 403 kts 330°
2026-04-26 18:46 53.28615 -3.62096 26283 ft 416 kts 330°
2026-04-26 18:46 53.31228 -3.64263 26281 ft 425 kts 330°
2026-04-26 18:47 53.33905 -3.66476 26281 ft 432 kts 330°
2026-04-26 18:47 53.36636 -3.68727 26279 ft 441 kts 331°
2026-04-26 18:47 53.39416 -3.71019 26279 ft 447 kts 331°
2026-04-26 18:47 53.42152 -3.73277 26274 ft 428 kts 330°
2026-04-26 18:48 53.44765 -3.75433 26276 ft 409 kts 330°
2026-04-26 18:48 53.47265 -3.77500 26275 ft 392 kts 330°
2026-04-26 18:48 53.49654 -3.79480 26276 ft 374 kts 330°
2026-04-26 18:48 53.51945 -3.81369 26275 ft 360 kts 330°
2026-04-26 18:49 53.54146 -3.83200 26275 ft 346 kts 330°
2026-04-26 18:49 53.56279 -3.84988 26276 ft 340 kts 329°
2026-04-26 18:49 53.58357 -3.86734 26277 ft 331 kts 329°
2026-04-26 18:49 53.60474 -3.88526 26281 ft 350 kts 329°
2026-04-26 18:50 53.62528 -3.90856 26281 ft 363 kts 317°
2026-04-26 18:50 53.64515 -3.93635 26278 ft 378 kts 316°
2026-04-26 18:50 53.66561 -3.96501 26276 ft 387 kts 317°
2026-04-26 18:50 53.68653 -3.99446 26279 ft 396 kts 317°
2026-04-26 18:51 53.70806 -4.02485 26275 ft 411 kts 317°
2026-04-26 18:51 53.73017 -4.05610 26269 ft 411 kts 317°
2026-04-26 18:51 53.75186 -4.08669 26278 ft 410 kts 317°
2026-04-26 18:51 53.77409 -4.11815 26275 ft 424 kts 317°
2026-04-26 18:52 53.79684 -4.15047 26269 ft 423 kts 317°
2026-04-26 18:52 53.81153 -4.17131 26269 ft 410 kts 317°
2026-04-26 18:52 53.83989 -4.21150 26272 ft 385 kts 317°
2026-04-26 18:52 53.86035 -4.24056 26277 ft 390 kts 317°
2026-04-26 18:53 53.88136 -4.27102 26252 ft 400 kts 314°
2026-04-26 18:53 53.89847 -4.30663 25818 ft 385 kts 299°
2026-04-26 18:53 53.91178 -4.34570 25158 ft 379 kts 297°
2026-04-26 18:53 53.92463 -4.38434 24543 ft 373 kts 298°
2026-04-26 18:54 53.93701 -4.42201 24000 ft 369 kts 298°
2026-04-26 18:54 53.94939 -4.45985 23515 ft 365 kts 298°
2026-04-26 18:54 53.96184 -4.49785 22982 ft 362 kts 299°
2026-04-26 18:54 53.97407 -4.53510 22476 ft 359 kts 299°
2026-04-26 18:55 53.98618 -4.57185 21974 ft 356 kts 299°
2026-04-26 18:55 53.99812 -4.60796 21501 ft 354 kts 299°
2026-04-26 18:55 54.01010 -4.64431 21021 ft 351 kts 299°
2026-04-26 18:55 54.02199 -4.68051 20560 ft 349 kts 299°
2026-04-26 18:56 54.03375 -4.71646 20085 ft 347 kts 299°
2026-04-26 18:56 54.04560 -4.75276 19627 ft 345 kts 299°
2026-04-26 18:56 54.05719 -4.78827 19210 ft 342 kts 299°
2026-04-26 18:56 54.06873 -4.82359 18789 ft 340 kts 299°
2026-04-26 18:57 54.08018 -4.85863 18309 ft 338 kts 299°
2026-04-26 18:57 54.08772 -4.88171 18009 ft 336 kts 299°
2026-04-26 18:57 54.10277 -4.92792 17381 ft 333 kts 299°
2026-04-26 18:57 54.11401 -4.96254 16922 ft 330 kts 299°
2026-04-26 18:58 54.12505 -4.99662 16301 ft 327 kts 298°
2026-04-26 18:58 54.13598 -5.03049 15715 ft 324 kts 298°
2026-04-26 18:58 54.14679 -5.06399 15197 ft 320 kts 298°
2026-04-26 18:58 54.15739 -5.09687 14766 ft 313 kts 298°
2026-04-26 18:59 54.16776 -5.12912 14382 ft 306 kts 298°
2026-04-26 18:59 54.17787 -5.16054 14019 ft 299 kts 298°
2026-04-26 18:59 54.18765 -5.19090 13643 ft 292 kts 298°
2026-04-26 18:59 54.19731 -5.22087 13286 ft 285 kts 298°
2026-04-26 19:00 54.20674 -5.25019 12942 ft 278 kts 298°
2026-04-26 19:00 54.21590 -5.27880 12605 ft 272 kts 297°
2026-04-26 19:00 54.22485 -5.30681 12267 ft 266 kts 297°
2026-04-26 19:00 54.23364 -5.33431 11936 ft 261 kts 298°
2026-04-26 19:01 54.24226 -5.36126 11613 ft 256 kts 298°
2026-04-26 19:01 54.25069 -5.38769 11279 ft 251 kts 298°
2026-04-26 19:01 54.25896 -5.41367 10957 ft 247 kts 298°
2026-04-26 19:01 54.26710 -5.43931 10641 ft 242 kts 298°
2026-04-26 19:02 54.27508 -5.46447 10319 ft 239 kts 298°
2026-04-26 19:02 54.28292 -5.48923 9981 ft 235 kts 298°
2026-04-26 19:02 54.29062 -5.51358 9652 ft 230 kts 298°
2026-04-26 19:02 54.29572 -5.52972 9427 ft 227 kts 298°
2026-04-26 19:03 54.30551 -5.56068 9015 ft 220 kts 298°
2026-04-26 19:03 54.31273 -5.58350 8700 ft 216 kts 298°
2026-04-26 19:03 54.31979 -5.60584 8394 ft 211 kts 297°
2026-04-26 19:03 54.32672 -5.62782 8092 ft 208 kts 297°
2026-04-26 19:04 54.33338 -5.64952 7792 ft 204 kts 291°
2026-04-26 19:04 54.33576 -5.67299 7491 ft 200 kts 272°
2026-04-26 19:04 54.33576 -5.69661 7193 ft 197 kts 269°
2026-04-26 19:04 54.33545 -5.72003 6902 ft 197 kts 269°
2026-04-26 19:05 54.33472 -5.76720 6289 ft 199 kts 269°
2026-04-26 19:05 54.33434 -5.79115 5978 ft 201 kts 269°
2026-04-26 19:05 54.33392 -5.81500 5673 ft 202 kts 269°
2026-04-26 19:06 54.33348 -5.83911 5364 ft 203 kts 269°
2026-04-26 19:06 54.33299 -5.86332 5058 ft 204 kts 269°
2026-04-26 19:06 54.33361 -5.88750 4733 ft 204 kts 280°
2026-04-26 19:06 54.33647 -5.91130 4427 ft 204 kts 283°
2026-04-26 19:07 54.33968 -5.93503 4132 ft 205 kts 283°
2026-04-26 19:07 54.34296 -5.95880 3828 ft 205 kts 284°
2026-04-26 19:07 54.34625 -5.98265 3530 ft 205 kts 284°
2026-04-26 19:07 54.34950 -6.00643 3280 ft 204 kts 284°
2026-04-26 19:08 54.35344 -6.02939 3102 ft 198 kts 294°
2026-04-26 19:08 54.35944 -6.05013 2998 ft 189 kts 298°
2026-04-26 19:08 54.36617 -6.06870 3003 ft 179 kts 309°
2026-04-26 19:08 54.37472 -6.08457 3000 ft 182 kts 316°
2026-04-26 19:09 54.38530 -6.09814 2994 ft 192 kts 329°
2026-04-26 19:09 54.39300 -6.10453 2986 ft 181 kts 336°
2026-04-26 19:09 54.40963 -6.11008 2996 ft 191 kts
2026-04-26 19:09 54.42227 -6.10450 2994 ft 189 kts 24°
2026-04-26 19:10 54.43362 -6.09191 3001 ft 196 kts 32°
2026-04-26 19:10 54.44470 -6.07876 3001 ft 193 kts 32°
2026-04-26 19:10 54.45564 -6.06580 3000 ft 189 kts 32°
2026-04-26 19:10 54.46641 -6.05305 3000 ft 187 kts 32°
2026-04-26 19:11 54.47706 -6.04043 2999 ft 184 kts 32°
2026-04-26 19:11 54.48785 -6.02764 2955 ft 191 kts 32°
2026-04-26 19:11 54.49916 -6.01421 2754 ft 202 kts 32°
2026-04-26 19:11 54.51059 -6.00064 2501 ft 197 kts 32°
2026-04-26 19:12 54.51801 -5.99183 2328 ft 195 kts 32°
2026-04-26 19:12 54.52901 -5.97875 2074 ft 191 kts 33°
2026-04-26 19:12 54.53982 -5.96589 1815 ft 186 kts 33°
2026-04-26 19:12 54.55024 -5.95349 1567 ft 176 kts 33°
2026-04-26 19:13 54.55975 -5.94215 1357 ft 155 kts 32°
2026-04-26 19:13 54.56817 -5.93211 1131 ft 140 kts 33°
2026-04-26 19:13 54.57588 -5.92292 932 ft 133 kts 37°
2026-04-26 19:13 54.58398 -5.91320 749 ft 147 kts 34°
2026-04-26 19:14 54.59199 -5.90369 539 ft 133 kts 35°
2026-04-26 19:14 54.59936 -5.89476 374 ft 130 kts 33°
2026-04-26 19:14 54.60688 -5.88587 196 ft 131 kts 34°
2026-04-26 19:14 54.61183 -5.88000 58 ft 130 kts 34°
2026-04-26 19:15 54.62022 -5.87000 23 ft 79 kts 34°
2026-04-26 19:15 54.62323 -5.86641 24 ft 24 kts 35°
2026-04-26 19:15 54.62419 -5.86553 24 ft 12 kts
2026-04-26 19:15 54.62469 -5.86479 23 ft 13 kts 113°
2026-04-26 19:16 54.62395 -5.86542 25 ft 17 kts 224°
2026-04-26 19:16 54.62275 -5.86695 24 ft 24 kts 215°
2026-04-26 19:16 54.62132 -5.86867 23 ft 26 kts 214°
2026-04-26 19:16 54.61981 -5.87046 23 ft 27 kts 215°
2026-04-26 19:17 54.61851 -5.87176 25 ft 13 kts 174°
2026-04-26 19:17 54.61796 -5.87080 23 ft 11 kts 124°
2026-04-26 19:17 54.61735 -5.86992 23 ft 12 kts 180°
2026-04-26 19:17 54.61666 -5.87062 23 ft 11 kts 214°
2026-04-26 19:18 54.61607 -5.87133 23 ft 9 kts 215°
2026-04-26 19:18 54.61563 -5.87182 23 ft 3 kts 201°
2026-04-26 19:18 54.61542 -5.87175 23 ft 4 kts 161°
2026-04-26 19:18 54.61517 -5.87157 23 ft 4 kts 156°
2026-04-26 19:19 54.61506 -5.87148 24 ft 1 kts 156°
2026-04-26 19:19 54.61501 -5.87145 25 ft 0 kts 156°
2026-04-26 19:20 51.38555 -2.71083 25 ft 0 kts 356°